Regional Weather Roundup
Issued by NWS

Home | Current Version | Previous Version | Graphics & Text | Print | Product List | Glossary Off
Versions: 1 2 3 4 5 6 7 8 9 10 11 12 13 14 15 16 17 18 19 20 21 22 23 24 25 26 27 28 29 30 31 32 33 34 35 36 37 38 39 40 41 42 43 44 45 46 47 48 49 50

000
ASUS43 KTOP 311859
RWRKS

WEATHER ROUNDUP FOR KANSAS
NATIONAL WEATHER SERVICE GOODLAND KS
200 PM CDT FRI JUL 31 2015

NOTE:  "FAIR" INDICATES FEW OR NO CLOUDS BELOW 12,000 FEET WITH NO
SIGNIFICANT WEATHER AND/OR OBSTRUCTIONS TO VISIBILITY.

KSZ001>006-013>018-027>032-041>047-312000-
NORTHWEST KANSAS

CITY           SKY/WX    TMP DP  RH WIND       PRES   REMARKS
GOODLAND       SUNNY     86  63  45 S13       30.24F
HAYS           SUNNY     90  63  40 S7        30.17F
HILL CITY      SUNNY     90  63  40 CALM      30.17F
RUSSELL        SUNNY     89  64  43 VRB5      30.15F
$$

KSZ061>065-074>080-084>089-312000-
SOUTHWEST KANSAS

CITY           SKY/WX    TMP DP  RH WIND       PRES   REMARKS
DODGE CITY     PTSUNNY   84  66  54 W7        30.22F
ELKHART          N/A     75  63  66 SE9         N/A
GARDEN CITY    MOSUNNY   85  67  54 SW10      30.22F
GREAT BEND     MOSUNNY   86  66  51 S8        30.17S
LIBERAL        CLOUDY    73  64  73 S7        30.25F
$$

KSZ066>073-081>083-090>101-312000-
SOUTHEAST KANSAS

CITY           SKY/WX    TMP DP  RH WIND       PRES   REMARKS
CHANUTE        SUNNY     90  65  43 VRB5      30.14F
COFFEYVILLE    SUNNY     88  71  57 VRB5      30.13F
HUTCHINSON     MOSUNNY   86  68  54 SE5       30.16F
MEDICINE LODGE   N/A     87  70  56 CALM      30.17F
NEWTON         SUNNY     86  64  48 CALM      30.19F
PARSONS        MOSUNNY   88  74  63 SW7       30.14F HX  96
WICHITA INTL   PTSUNNY   89  68  49 S6        30.15F
WICHITA JABRA  SUNNY     88  67  49 CALM      30.15F
WINFIELD       MOSUNNY   88  72  58 E3        30.14F
$$

KSZ007>012-019>026-033>040-048>060-102>105-312000-
NORTHEAST KANSAS

CITY           SKY/WX    TMP DP  RH WIND       PRES   REMARKS
CONCORDIA      SUNNY     89  68  49 VRB6      30.14F
EMPORIA        SUNNY     88  65  46 MISG      30.14F
LAWRENCE       SUNNY     88  66  48 VRB3      30.13F
MANHATTAN      SUNNY     89  70  53 S5        30.13F
OLATHE IND     SUNNY     87  64  46 MISG      30.14F
OLATHE EXE     SUNNY     87  62  43 W5        30.13F
SALINA         PTSUNNY   90  71  53 VRB5      30.14F HX  96
TOPEKA BILLARD SUNNY     88  67  49 VRB3      30.13F
TOPEKA FORBES  SUNNY     89  63  41 CALM      30.14F
$$



USA.gov is the U.S. government's official web portal to all federal, state and local government web resources and services.